EW3857 Weather Reports


time (UTC)temp
C
wind
direction
speed
KPH
gust
KPH
rain 1hr
cm
rain 24hr
cm
rain mn
cm
humidity
%
barometer
mb
20260906083453 26 204 8.0 9.7 0.00 0.00 0.00 82 1015.4
20260906082952 26 158 4.8 8.0 0.00 0.00 0.00 84 1015.5
20260906082448 26 161 8.0 9.7 0.00 0.00 0.00 84 1015.6
20260906081943 26 169 6.4 8.0 0.00 0.00 0.00 85 1015.3
20260906081438 26 202 8.0 8.0 0.00 0.00 0.00 86 1015.3
20260906080934 26 194 8.0 8.0 0.00 0.00 0.00 86 1015.3
20260906080431 26 156 9.7 11.3 0.00 0.00 0.00 87 1015.3
20260906075931 26 188 6.4 8.0 0.00 0.00 0.00 90 1015.3
20260906075426 26 184 4.8 8.0 0.00 0.00 0.00 91 1015.1
20260906074920 26 187 4.8 8.0 0.00 0.00 0.00 90 1015.0
20260906074415 26 153 9.7 11.3 0.00 0.00 0.00 89 1014.9
20260906073914 26 161 9.7 11.3 0.00 0.00 0.00 89 1015.0
20260906073409 26 153 6.4 8.0 0.00 0.00 0.00 90 1015.0
20260906072905 26 179 4.8 4.8 0.00 0.00 0.00 90 1015.1
20260906072400 26 163 8.0 8.0 0.00 0.00 0.00 90 1015.1
20260906071856 26 163 8.0 9.7 0.00 0.00 0.00 90 1015.1
20260906071351 26 171 6.4 8.0 0.00 0.00 0.00 92 1015.1
20260906070847 26 182 8.0 8.0 0.00 0.00 0.00 93 1015.0
20260906070343 25 180 0.0 0.0 0.00 0.00 0.00 93 1015.3
20260906065838 25 180 0.0 0.0 0.00 0.00 0.00 93 1015.3
20260906065333 25 180 0.0 0.0 0.00 0.00 0.00 93 1015.2
20260906064828 25 180 0.0 1.6 0.00 0.00 0.00 93 1015.2
20260906064324 25 181 0.0 0.0 0.00 0.00 0.00 93 1014.9
20260906063819 25 181 1.6 1.6 0.00 0.00 0.00 94 1015.0
20260906063315 25 180 0.0 1.6 0.00 0.00 0.00 94 1015.1
20260906062810 25 180 0.0 0.0 0.00 0.00 0.00 95 1015.2
20260906062308 25 180 0.0 0.0 0.00 0.00 0.00 95 1015.1
20260906061804 25 179 1.6 1.6 0.00 0.00 0.00 95 1015.2
20260906061301 25 181 1.6 1.6 0.00 0.00 0.00 95 1015.0
20260906060755 25 180 0.0 0.0 0.00 0.00 0.00 95 1015.0
20260906060253 25 181 1.6 1.6 0.00 0.00 0.00 94 1015.1
20260906055749 25 180 0.0 0.0 0.00 0.00 0.00 94 1015.1
20260906055244 25 180 0.0 0.0 0.00 0.00 0.00 93 1015.0
20260906054739 25 180 0.0 0.0 0.00 0.00 0.00 93 1015.1
20260906054234 25 180 0.0 0.0 0.00 0.00 0.00 93 1014.9
20260906053731 25 180 0.0 0.0 0.00 0.00 0.00 93 1015.2
20260906053226 25 180 0.0 0.0 0.00 0.00 0.00 94 1015.1
20260906052721 25 181 1.6 1.6 0.00 0.00 0.00 93 1015.2
20260906052217 25 182 3.2 3.2 0.00 0.00 0.00 93 1015.0
20260906051714 25 180 0.0 0.0 0.00 0.00 0.00 93 1015.1
20260906051213 25 181 1.6 1.6 0.00 0.00 0.00 93 1015.0
20260906050709 25 181 1.6 1.6 0.00 0.00 0.00 93 1015.0
20260906050204 25 180 0.0 0.0 0.00 0.00 0.00 93 1015.2
20260906045702 25 180 1.6 1.6 0.00 0.00 0.00 93 1015.3
20260906045157 25 180 0.0 0.0 0.00 0.00 0.00 94 1015.1
20260906044653 25 181 1.6 1.6 0.00 0.00 0.00 94 1015.2
20260906044148 25 180 0.0 0.0 0.00 0.00 0.00 93 1015.2
20260906043645 25 180 0.0 0.0 0.00 0.00 0.00 93 1015.4
20260906043140 26 180 1.6 1.6 0.00 0.00 0.00 92 1015.5
20260906042639 26 180 0.0 0.0 0.00 0.00 0.00 92 1015.3
20260906042134 25 180 0.0 1.6 0.00 0.00 0.00 92 1015.3
20260906041629 25 180 0.0 0.0 0.00 0.00 0.00 92 1015.3
20260906041124 25 181 1.6 3.2 0.00 0.00 0.00 93 1015.4
20260906040620 25 179 1.6 1.6 0.00 0.00 0.00 93 1015.4
20260906040115 25 180 0.0 0.0 0.00 0.00 0.00 92 1015.4
20260906035610 25 181 1.6 1.6 0.00 0.00 0.00 92 1015.4
20260906035105 26 180 0.0 0.0 0.00 0.00 0.00 92 1015.3
20260906034600 26 180 0.0 0.0 0.00 0.00 0.00 92 1015.3
20260906034100 26 181 0.0 1.6 0.00 0.00 0.00 92 1015.3
20260906033550 26 180 1.6 1.6 0.00 0.00 0.00 92 1015.3
20260906033045 26 181 1.6 3.2 0.00 0.00 0.00 92 1015.1
20260906032541 26 181 1.6 3.2 0.00 0.00 0.00 92 1015.1
20260906032036 26 181 1.6 1.6 0.00 0.00 0.00 92 1015.1
20260906031532 26 182 1.6 1.6 0.00 0.00 0.00 92 1015.2
20260906031028 26 180 1.6 3.2 0.00 0.00 0.00 92 1015.0
20260906030526 26 180 1.6 1.6 0.00 0.00 0.00 91 1015.0
20260906030026 26 180 0.0 0.0 0.00 0.00 0.00 91 1015.2
20260906025526 26 180 0.0 1.6 0.00 0.00 0.00 90 1015.1
20260906025024 26 181 1.6 1.6 0.00 0.00 0.00 90 1015.2
20260906024519 26 179 0.0 0.0 0.00 0.00 0.00 90 1014.9
20260906024014 26 181 3.2 3.2 0.00 0.00 0.00 89 1014.9
20260906023510 26 252 1.6 1.6 0.00 0.00 0.00 88 1014.9
20260906023005 26 251 1.6 1.6 0.00 0.00 0.00 88 1014.8
20260906022500 27 251 1.6 1.6 0.00 0.00 0.00 87 1014.9
20260906021955 27 270 1.6 3.2 0.00 0.00 0.00 86 1014.8
20260906021450 27 268 1.6 1.6 0.00 0.00 0.00 85 1014.9
20260906020944 28 274 0.0 1.6 0.00 0.00 0.00 84 1014.9
20260906020439 28 281 1.6 1.6 0.00 0.00 0.00 84 1014.7
20260906015939 28 20 3.2 4.8 0.00 0.00 0.00 85 1014.9
20260906015438 28 28 6.4 8.0 0.00 0.00 0.00 85 1015.1
20260906014932 28 1 1.6 1.6 0.00 0.00 0.00 85 1014.8
20260906014432 28 16 1.6 1.6 0.00 0.00 0.00 84 1014.7
20260906013923 28 50 4.8 4.8 0.00 0.00 0.00 84 1014.8
20260906013418 28 349 1.6 1.6 0.00 0.00 0.00 83 1014.5
20260906012914 27 336 1.6 3.2 0.00 0.00 0.00 83 1014.6
20260906012408 27 272 0.0 0.0 0.00 0.00 0.00 83 1014.7
20260906011907 27 273 0.0 0.0 0.00 0.00 0.00 83 1014.4
20260906011403 28 314 1.6 1.6 0.00 0.00 0.00 82 1014.1
20260906010858 28 325 3.2 3.2 0.00 0.00 0.00 83 1013.7
20260906010354 28 289 1.6 1.6 0.00 0.00 0.00 82 1013.6
20260906005850 28 331 3.2 3.2 0.00 0.00 0.00 80 1013.4
20260906005349 29 12 3.2 3.2 0.00 0.00 0.00 81 1013.4
20260906004847 29 67 1.6 3.2 0.00 0.00 0.00 82 1013.4
20260906004347 28 40 1.6 3.2 0.00 0.00 0.00 78 1013.4
20260906003843 28 349 4.8 4.8 0.00 0.00 0.00 77 1013.4
20260906003338 29 12 4.8 4.8 0.00 0.00 0.00 78 1013.6
20260906002833 29 353 8.0 8.0 0.00 0.00 0.00 76 1013.6
20260906002333 30 358 6.4 8.0 0.00 0.00 0.00 75 1013.7
20260906001829 30 345 6.4 8.0 0.00 0.00 0.00 73 1013.8
20260906001324 30 289 0.0 1.6 0.00 0.00 0.00 72 1013.7
20260906000819 30 20 3.2 4.8 0.00 0.00 0.00 70 1013.8
20260906000314 30 0 4.8 8.0 0.00 0.00 0.00 80 1013.5
20260905235809 30 68 6.4 9.7 0.00 0.00 0.00 80 1013.6
20260905235308 29 317 1.6 3.2 0.00 0.00 0.00 75 1013.3
20260905234804 30 262 0.0 0.0 0.00 0.00 0.00 79 1013.3
20260905234259 30 267 0.0 0.0 0.00 0.00 0.00 77 1013.7
20260905233754 30 272 0.0 1.6 0.00 0.00 0.00 74 1013.5
20260905233254 31 272 1.6 3.2 0.00 0.00 0.00 71 1013.6
20260905232753 31 273 1.6 1.6 0.00 0.00 0.00 70 1013.6
20260905232249 31 288 0.0 1.6 0.00 0.00 0.00 68 1013.6
20260905231744 32 350 8.0 9.7 0.00 0.00 0.00 57 1013.4
20260905231239 32 5 6.4 8.0 0.00 0.00 0.00 58 1013.5
20260905230736 32 13 6.4 8.0 0.00 0.00 0.00 58 1013.5
20260905230233 32 2 4.8 4.8 0.00 0.00 0.00 67 1013.2
20260905225728 31 0 4.8 4.8 0.00 0.00 0.00 68 1013.4
20260905225224 32 325 1.6 1.6 0.00 0.00 0.00 68 1013.1
20260905224722 32 22 4.8 8.0 0.00 0.00 0.00 63 1013.1
20260905224218 32 18 6.4 8.0 0.00 0.00 0.00 65 1013.3
20260905223714 32 72 4.8 8.0 0.00 0.00 0.00 66 1013.2
20260905223211 32 338 4.8 4.8 0.00 0.00 0.00 62 1013.1
20260905222706 32 342 8.0 9.7 0.00 0.00 0.00 63 1013.3
20260905222205 33 16 14.5 16.1 0.00 0.00 0.00 62 1013.3
20260905221701 35 39 14.5 20.9 0.00 0.00 0.00 57 1013.4
20260905221157 35 285 3.2 3.2 0.00 0.00 0.00 56 1013.3
20260905220653 35 285 3.2 3.2 0.00 0.00 0.00 56 1013.4
20260905220149 35 273 0.0 0.0 0.00 0.00 0.00 59 1013.6
20260905215643 35 264 0.0 0.0 0.00 0.00 0.00 60 1013.3
20260905215138 35 266 0.0 0.0 0.00 0.00 0.00 60 1013.4
20260905214634 35 269 0.0 0.0 0.00 0.00 0.00 57 1013.5
20260905214129 35 270 1.6 3.2 0.00 0.00 0.00 57 1013.3
20260905213625 35 267 0.0 0.0 0.00 0.00 0.00 55 1013.4
20260905213120 35 270 0.0 0.0 0.00 0.00 0.00 58 1013.4
20260905212615 35 256 3.2 3.2 0.00 0.00 0.00 57 1013.5
20260905212114 35 272 0.0 0.0 0.00 0.00 0.00 56 1013.7
20260905211610 35 287 1.6 1.6 0.00 0.00 0.00 56 1013.5
20260905211105 36 271 0.0 0.0 0.00 0.00 0.00 55 1013.5
20260905210602 36 266 0.0 0.0 0.00 0.00 0.00 57 1013.3
20260905210056 35 264 0.0 0.0 0.00 0.00 0.00 60 1013.2
20260905205555 35 252 4.8 4.8 0.00 0.00 0.00 59 1013.3
20260905205055 35 256 3.2 3.2 0.00 0.00 0.00 57 1013.5
20260905204549 35 257 3.2 3.2 0.00 0.00 0.00 55 1013.4
20260905204045 35 257 4.8 4.8 0.00 0.00 0.00 55 1013.4
20260905203544 35 253 6.4 8.0 0.00 0.00 0.00 57 1013.5
20260905203040 35 256 1.6 1.6 0.00 0.00 0.00 56 1013.7
20260905202535 35 249 6.4 8.0 0.00 0.00 0.00 58 1013.6
20260905202031 35 258 1.6 3.2 0.00 0.00 0.00 59 1013.7
20260905201526 35 252 6.4 8.0 0.00 0.00 0.00 59 1013.8
20260905201025 35 255 4.8 4.8 0.00 0.00 0.00 59 1014.1
20260905200521 35 252 4.8 4.8 0.00 0.00 0.00 60 1014.2
20260905200020 35 255 4.8 4.8 0.00 0.00 0.00 59 1014.2
20260905195515 35 255 4.8 4.8 0.00 0.00 0.00 58 1014.3
20260905195010 35 255 3.2 3.2 0.00 0.00 0.00 59 1014.6
20260905194509 35 277 1.6 1.6 0.00 0.00 0.00 59 1014.6
20260905194003 35 257 1.6 1.6 0.00 0.00 0.00 59 1014.3
20260905193458 35 264 1.6 1.6 0.00 0.00 0.00 60 1014.4
20260905192954 35 257 1.6 1.6 0.00 0.00 0.00 60 1014.6
20260905192449 35 255 3.2 3.2 0.00 0.00 0.00 58 1014.5
20260905191945 34 251 4.8 4.8 0.00 0.00 0.00 62 1014.6
20260905191443 34 261 1.6 1.6 0.00 0.00 0.00 59 1014.6
20260905190937 34 256 3.2 3.2 0.00 0.00 0.00 62 1014.7
20260905190435 34 249 4.8 4.8 0.00 0.00 0.00 62 1015.0
20260905185934 34 256 3.2 3.2 0.00 0.00 0.00 61 1015.0
20260905185429 34 251 4.8 4.8 0.00 0.00 0.00 63 1015.0
20260905184928 33 255 4.8 4.8 0.00 0.00 0.00 61 1015.2
20260905184423 33 251 6.4 8.0 0.00 0.00 0.00 62 1015.2
20260905183922 34 253 6.4 8.0 0.00 0.00 0.00 65 1015.1
20260905183416 33 253 4.8 8.0 0.00 0.00 0.00 63 1015.4
20260905182912 33 255 4.8 4.8 0.00 0.00 0.00 65 1015.5
20260905182410 33 249 8.0 8.0 0.00 0.00 0.00 65 1015.4
20260905181907 34 250 6.4 8.0 0.00 0.00 0.00 64 1015.3
20260905181407 33 254 4.8 4.8 0.00 0.00 0.00 66 1015.6
20260905180905 33 252 6.4 8.0 0.00 0.00 0.00 66 1015.8
20260905180401 33 251 6.4 8.0 0.00 0.00 0.00 66 1015.8
20260905175855 33 256 4.8 4.8 0.00 0.00 0.00 63 1015.8
20260905175354 33 256 3.2 3.2 0.00 0.00 0.00 66 1016.0
20260905174850 33 252 4.8 4.8 0.00 0.00 0.00 68 1016.0
20260905174346 33 260 1.6 1.6 0.00 0.00 0.00 69 1015.9
20260905173842 33 262 1.6 3.2 0.00 0.00 0.00 67 1016.1
20260905173337 33 269 1.6 1.6 0.00 0.00 0.00 66 1016.1
20260905172832 33 264 1.6 1.6 0.00 0.00 0.00 66 1016.1
20260905172330 33 270 0.0 0.0 0.00 0.00 0.00 72 1016.2
20260905171827 33 262 1.6 1.6 0.00 0.00 0.00 70 1016.3
20260905171323 33 262 3.2 4.8 0.00 0.00 0.00 72 1016.2
20260905170819 32 258 3.2 3.2 0.00 0.00 0.00 72 1016.4
20260905170315 32 262 3.2 3.2 0.00 0.00 0.00 73 1016.2
20260905165814 32 255 4.8 4.8 0.00 0.00 0.00 76 1016.3
20260905165309 32 263 3.2 3.2 0.00 0.00 0.00 76 1016.4
20260905164804 32 261 1.6 3.2 0.00 0.00 0.00 77 1016.4
20260905164304 32 257 3.2 3.2 0.00 0.00 0.00 79 1016.4
20260905163754 32 255 1.6 3.2 0.00 0.00 0.00 78 1016.8
20260905163250 31 265 1.6 1.6 0.00 0.00 0.00 79 1016.7
20260905162746 31 264 1.6 1.6 0.00 0.00 0.00 81 1016.7
20260905162245 31 268 1.6 1.6 0.00 0.00 0.00 80 1016.6
20260905161740 31 263 1.6 3.2 0.00 0.00 0.00 82 1016.8
20260905161238 31 344 0.0 0.0 0.00 0.00 0.00 81 1016.8
20260905160732 31 268 1.6 1.6 0.00 0.00 0.00 81 1016.8
20260905160231 31 265 1.6 1.6 0.00 0.00 0.00 81 1017.1
20260905155726 31 260 3.2 3.2 0.00 0.00 0.00 81 1017.0
20260905155225 31 256 3.2 3.2 0.00 0.00 0.00 81 1017.1
20260905154719 31 265 1.6 1.6 0.00 0.00 0.00 82 1017.1
20260905154215 30 268 1.6 1.6 0.00 0.00 0.00 84 1017.1
20260905153711 30 262 3.2 3.2 0.00 0.00 0.00 83 1017.2
20260905153206 30 264 1.6 1.6 0.00 0.00 0.00 84 1017.1
20260905152701 29 257 3.2 3.2 0.00 0.00 0.00 87 1017.3
20260905152155 29 266 1.6 1.6 0.00 0.00 0.00 88 1017.3
20260905151650 29 266 0.0 1.6 0.00 0.00 0.00 89 1017.2
20260905151146 28 252 1.6 1.6 0.00 0.00 0.00 89 1017.2
20260905150641 28 269 1.6 1.6 0.00 0.00 0.00 90 1017.1
20260905150139 28 271 0.0 1.6 0.00 0.00 0.00 90 1017.2
20260905145637 28 277 0.0 1.6 0.00 0.00 0.00 90 1017.1
20260905145137 28 270 0.0 0.0 0.00 0.00 0.00 90 1017.2
20260905144626 28 259 1.6 1.6 0.00 0.00 0.00 91 1017.3
20260905144125 28 267 0.0 1.6 0.00 0.00 0.00 91 1017.3
20260905143620 28 261 3.2 3.2 0.00 0.00 0.00 92 1017.0
20260905143115 28 259 1.6 3.2 0.00 0.00 0.00 90 1017.2
20260905142614 28 264 1.6 1.6 0.00 0.00 0.00 90 1017.2
20260905142113 28 266 0.0 0.0 0.00 0.00 0.00 90 1017.5
20260905141613 28 268 1.6 1.6 0.00 0.00 0.00 89 1017.2
20260905141110 28 271 0.0 1.6 0.00 0.00 0.00 89 1017.6
20260905140604 27 266 1.6 1.6 0.00 0.00 0.00 89 1017.3
20260905140103 27 266 1.6 1.6 0.00 0.00 0.00 90 1017.3
20260905135559 27 256 3.2 4.8 0.00 0.00 0.00 89 1017.3
20260905135054 27 261 1.6 3.2 0.00 0.00 0.00 89 1017.4
20260905134549 27 262 1.6 1.6 0.00 0.00 0.00 90 1017.5
20260905134047 27 264 1.6 1.6 0.00 0.00 0.00 91 1017.8
20260905133543 27 278 0.0 1.6 0.00 0.00 0.00 92 1017.7
20260905133042 27 266 1.6 1.6 0.00 0.00 0.00 94 1017.7
20260905132543 27 261 3.2 3.2 0.00 0.00 0.00 94 1017.9
20260905132037 27 264 1.6 1.6 0.00 0.00 0.00 94 1017.7
20260905131533 26 266 1.6 1.6 0.00 0.00 0.00 94 1017.7
20260905131028 26 266 0.0 0.0 0.00 0.00 0.00 95 1018.0
20260905130527 26 262 3.2 3.2 0.00 0.00 0.00 95 1017.8
20260905130023 26 278 0.0 1.6 0.00 0.00 0.00 96 1017.7
20260905125522 26 264 3.2 3.2 0.00 0.00 0.00 97 1017.5
20260905125018 26 270 0.0 0.0 0.00 0.00 0.00 98 1017.6
20260905124514 26 270 0.0 0.0 0.00 0.00 0.00 98 1017.7
20260905124010 25 270 0.0 0.0 0.00 0.00 0.00 99 1017.8
20260905123505 25 270 0.0 0.0 0.00 0.00 0.00 99 1017.8
20260905123001 25 270 0.0 0.0 0.00 0.00 0.00 99 1017.8
20260905122501 25 270 0.0 0.0 0.00 0.00 0.00 99 1017.6
20260905121955 24 270 0.0 1.6 0.00 0.00 0.00 99 1017.8
20260905121451 24 270 0.0 0.0 0.00 0.00 0.00 99 1017.7
20260905120950 24 270 0.0 0.0 0.00 0.00 0.00 99 1017.4
20260905120445 24 270 0.0 0.0 0.00 0.00 0.00 99 1017.6
20260905115940 24 270 0.0 0.0 0.00 0.00 0.00 99 1017.6
20260905115439 24 269 0.0 0.0 0.00 0.00 0.00 99 1017.4
20260905114934 24 269 0.0 0.0 0.00 0.00 0.00 99 1017.4
20260905114428 23 269 0.0 0.0 0.00 0.00 0.00 99 1017.2
20260905113928 23 268 0.0 0.0 0.00 0.00 0.00 99 1017.4
20260905113423 23 269 0.0 0.0 0.00 0.00 0.00 99 1017.3
20260905112918 23 269 0.0 0.0 0.00 0.00 0.00 99 1017.0
20260905112414 23 269 0.0 0.0 0.00 0.00 0.00 99 1017.1
20260905111908 23 270 0.0 0.0 0.00 0.00 0.00 99 1017.2
20260905111408 23 269 0.0 0.0 0.00 0.00 0.00 99 1017.1
20260905110902 23 269 0.0 0.0 0.00 0.00 0.00 99 1016.7
20260905110356 23 269 0.0 0.0 0.00 0.00 0.00 99 1016.9
20260905105852 23 271 0.0 0.0 0.00 0.00 0.00 99 1016.8
20260905105350 23 269 0.0 0.0 0.00 0.00 0.00 99 1016.7
20260905104845 24 269 1.6 1.6 0.00 0.00 0.00 99 1016.7
20260905104342 23 270 0.0 0.0 0.00 0.00 0.00 99 1016.5
20260905103841 23 270 0.0 0.0 0.00 0.00 0.00 99 1016.6
20260905103337 23 269 1.6 1.6 0.00 0.00 0.00 99 1016.4
20260905102832 24 271 0.0 0.0 0.00 0.00 0.00 99 1016.3
20260905102329 24 271 0.0 0.0 0.00 0.00 0.00 99 1016.2
20260905101829 24 271 0.0 0.0 0.00 0.00 0.00 99 1016.4
20260905101327 23 270 1.6 1.6 0.00 0.00 0.00 99 1016.3
20260905100821 23 271 0.0 0.0 0.00 0.00 0.00 99 1016.0
20260905100317 23 271 0.0 0.0 0.00 0.00 0.00 99 1016.3
20260905095816 23 271 0.0 0.0 0.00 0.00 0.00 99 1016.3
20260905095311 23 271 0.0 0.0 0.00 0.00 0.00 99 1016.2
20260905094805 23 271 0.0 0.0 0.00 0.00 0.00 99 1016.3
20260905094301 23 271 0.0 0.0 0.00 0.00 0.00 99 1016.4
20260905093754 23 271 0.0 0.0 0.00 0.00 0.00 99 1016.5
20260905093250 23 271 0.0 0.0 0.00 0.00 0.00 99 1016.5
20260905092745 23 271 0.0 0.0 0.00 0.00 0.00 99 1016.2
20260905092240 23 271 0.0 0.0 0.00 0.00 0.00 99 1016.2
20260905091735 23 271 0.0 0.0 0.00 0.00 0.00 99 1016.2
20260905091230 24 271 0.0 0.0 0.00 0.00 0.00 99 1016.1
20260905090729 24 271 1.6 1.6 0.00 0.00 0.00 99 1016.1
20260905090225 24 271 0.0 0.0 0.00 0.00 0.00 99 1016.2
20260905085724 24 271 1.6 1.6 0.00 0.00 0.00 99 1016.1
20260905085218 24 271 1.6 1.6 0.00 0.00 0.00 99 1016.0
20260905084713 24 271 0.0 1.6 0.00 0.00 0.00 99 1015.8
20260905084212 24 271 0.0 0.0 0.00 0.00 0.00 99 1015.9